Location: Beneden-Haastrecht
(52.0012°N, 4.7557°E)
Time: 02:51:31
(UTC+00:00)

Cosmos 1844 Rocket - Pass Details

Date: 24 October 2020
Orbit: 823 x 846 km, 71.0° (Epoch: 24 November)

Event Time Altitude Azimuth Distance (km) Brightness Sun altitude
Rises 19:50:12 0° 329° (NNW) 3,410 6.6 -31.4°
Reaches altitude 10° 19:53:01 10° 342° (NNW) 2,475 5.6 -31.8°
Enters shadow 19:55:51 23° 7° (N) 1,741 4.4 -32.2°
